Location: Bodham
(52.9000°N, 1.1667°E)
Time: 14:32:08
(UTC+00:00)

Cosmos 2112 Rocket - Pass Details

Date: 22 October 2025
Orbit: 753 x 782 km, 74.0° (Epoch: 13 November)

Event Time Altitude Azimuth Distance (km) Brightness Sun altitude
Rises 03:52:27 0° 335° (NNW) 3,246 7.2 -24.9°
Reaches altitude 10° 03:54:54 10° 340° (NNW) 2,311 6.4 -24.5°
Maximum altitude 04:00:02 54° 58° (ENE) 928 4.7 -23.8°
Drops below altitude 10° 04:05:06 10° 136° (SE) 2,281 6.8 -23.1°
Sets 04:07:30 0° 141° (SE) 3,200 7.6 -22.7°
